Lewistown, MT

6:00 AM MDT on August 22, 2017 (GMT -0600)
Lewistown Municipal

Weather History for KLWT - April, 2014

Change the Weather History Date:

Tuesday, April 8, 2014

  Actual Average Record
Temperature  
Mean Temperature 52 °F 39 °F  
Max Temperature 69 °F 51 °F 75 °F (2016)
Min Temperature 34 °F 28 °F -5 °F (1982)
Degree Days  
Heating Degree Days 13 26  
Month to date heating degree days 210 212  
Since 1 July heating degree days 7383 7011  
Cooling Degree Days 0 0  
Month to date cooling degree days 0 0  
Year to date cooling degree days 0 0  
Growing Degree Days 2 (Base 50)    
Moisture  
Dew Point 28 °F    
Average Humidity 46    
Maximum Humidity 75    
Minimum Humidity 17    
Precipitation  
Precipitation 0.00 in 0.04 in 0.62 in (1975)
Month to date precipitation 0.17 0.33  
Year to date precipitation 2.92 2.33  
Snow  
Snow 0.00 in - - ()
Snow Depth 0.00 in    
Sea Level Pressure  
Sea Level Pressure 29.94 in    
Wind  
Wind Speed 15 mph (WSW)    
Max Wind Speed 32 mph    
Max Gust Speed 40 mph    
Visibility 10 miles    
Events      
T = Trace of Precipitation, MM = Missing Value Source: NWS Daily Summary

Daily Weather History Graph

Daily Weather History Graph

Search for Another Location

Airport or City:

Trip Planner

Search our weather history database for the weather conditions in past years. The results will help you decide how hot, cold, wet, or windy it might be!

Date:

Astronomy

Apr. 08, 2014 Rise Set
Actual Time 6:43 AM MDT 7:57 PM MDT
Civil Twilight 6:11 AM MDT 8:28 PM MDT
Nautical Twilight 5:34 AM MDT 9:06 PM MDT
Astronomical Twilight 4:53 AM MDT 9:46 PM MDT
Moon 1:31 PM MDT (4/8) 3:20 AM MDT (4/8)
Length of Visible Light 14h 16m
Length of Day
13h 13m
Waxing Gibbous, 63% of the Moon is Illuminated
Apr 8
Waxing Gibbous
Apr 15
Full
Apr 22
Last Quarter
Apr 29
New
May 6
First Quarter

Hourly Weather History & Observations

Time (MDT) Temp. Windchill Dew Point Humidity Pressure Visibility Wind Dir Wind Speed Gust Speed Precip Events Conditions
12:54 AM 39.0 °F 34.8 °F 30.0 °F 70% 30.10 in 10.0 mi West 5.8 mph - N/A   Clear
1:54 AM 37.9 °F - 28.9 °F 70% 30.09 in 10.0 mi Calm Calm - N/A   Clear
2:54 AM 36.0 °F - 28.9 °F 76% 30.06 in 10.0 mi Calm Calm - N/A   Clear
4:54 AM 37.9 °F 32.1 °F 28.9 °F 70% 30.04 in 10.0 mi SW 8.1 mph - N/A   Clear
5:54 AM 43.0 °F 36.8 °F 30.0 °F 60% 30.01 in 10.0 mi SW 11.5 mph - N/A   Clear
6:54 AM 43.0 °F 35.7 °F 30.0 °F 60% 30.03 in 10.0 mi SW 15.0 mph - N/A   Clear
7:54 AM 45.0 °F 38.5 °F 30.0 °F 56% 30.03 in 10.0 mi SW 13.8 mph - N/A   Clear
8:54 AM 51.1 °F - 30.9 °F 46% 30.02 in 10.0 mi SW 15.0 mph - N/A   Clear
9:54 AM 55.9 °F - 30.9 °F 39% 30.00 in 10.0 mi WSW 21.9 mph - N/A   Clear
12:54 PM 62.1 °F - 27.0 °F 26% 29.98 in 10.0 mi WSW 19.6 mph 27.6 mph N/A   Clear
1:54 PM 64.0 °F - 25.0 °F 23% 29.94 in 10.0 mi West 24.2 mph 35.7 mph N/A   Clear
2:54 PM 66.0 °F - 25.0 °F 21% 29.92 in 10.0 mi West 28.8 mph 34.5 mph N/A   Clear
4:54 PM 68.0 °F - 21.9 °F 17% 29.85 in 10.0 mi West 16.1 mph 28.8 mph N/A   Clear
5:54 PM 66.9 °F - 23.0 °F 19% 29.83 in 10.0 mi West 17.3 mph 31.1 mph N/A   Clear
6:54 PM 62.1 °F - 28.9 °F 29% 29.84 in 10.0 mi West 13.8 mph - N/A   Unknown
7:54 PM 57.0 °F - 28.9 °F 34% 29.84 in 10.0 mi WSW 11.5 mph - N/A   Clear
8:54 PM 54.0 °F - 28.9 °F 38% 29.83 in 10.0 mi WSW 17.3 mph - N/A   Clear
9:54 PM 55.0 °F - 28.9 °F 37% 29.82 in 10.0 mi WSW 17.3 mph - N/A   Clear
10:54 PM 55.0 °F - 27.0 °F 34% 29.80 in 10.0 mi West 17.3 mph - N/A   Clear
11:54 PM 51.1 °F - 28.9 °F 43% 29.79 in 10.0 mi WSW 15.0 mph - N/A   Clear